Regional Weather Roundup
Issued by NWS

Home | Current Version | Previous Version | Graphics & Text | Print | Product List | Glossary On
Versions: 1 2 3 4 5 6 7 8 9 10 11 12 13 14 15 16 17 18 19 20 21 22 23 24 25 26 27 28 29 30 31 32 33 34 35 36 37 38 39 40 41 42 43 44 45 46 47 48 49 50
109
ASUS43 KLMK 090202
RWRKY
KENTUCKY REGIONAL WEATHER ROUNDUP
NATIONAL WEATHER SERVICE LOUISVILLE KY
900 PM EST THU DEC 08 2016

NOTE "FAIR" INDICATES FEW OR NO CLOUDS BELOW 12,000 FEET
WITH NO SIGNIFICANT WEATHER AND/OR OBSTRUCTIONS TO VISIBILITY.

KYZ001>023-026-027-061>063-070>075-090300-
WESTERN AND SOUTH CENTRAL KENTUCKY

CITY           SKY/WX    TMP DP  RH WIND       PRES   REMARKS
PADUCAH        CLEAR     27  14  58 N6        30.54R WCI  20
HENDERSON      CLOUDY    27  12  54 NW13      30.53R WCI  16
OWENSBORO      CLOUDY    28  17  63 NW13      30.52R WCI  17
HOPKINSVILLE   CLEAR     27  15  62 NW5       30.50R WCI  22
BOWLING GREEN  CLEAR     29  16  58 NW8       30.50R WCI  21
GLASGOW        NOT AVBL
$$

KYZ024-025-028>034-038-045-046-053-090300-
NORTH CENTRAL KENTUCKY

CITY           SKY/WX    TMP DP  RH WIND       PRES   REMARKS
LOUISVILLE/SDF CLOUDY    27  11  51 NW15      30.48R WCI  15
LOUISVILLE/LOU CLOUDY    27  12  53 W13       30.48R WCI  16
FORT KNOX      CLOUDY    26  13  58 NW13      30.44R WCI  15
$$

KYZ035>037-039>044-047>052-055>060-089>105-090300-
NORTHEAST KENTUCKY

CITY           SKY/WX    TMP DP  RH WIND       PRES   REMARKS
LEXINGTON      CLEAR     24  13  62 NW10      30.41R WCI  14
COVINGTON      FLURRIES  23  13  65 W16       30.41R WCI  10
FRANKFORT      PTCLDY    24  13  62 W8        30.42R WCI  15
$$

KYZ054-064>069-076>088-106>120-090300-
SOUTHEAST KENTUCKY

CITY           SKY/WX    TMP DP  RH WIND       PRES   REMARKS
JACKSON        CLEAR     27  14  58 VRB5      30.34R WCI  22
LONDON         CLEAR     26  14  60 W7        30.39R WCI  18
SOMERSET       NOT AVBL
MIDDLESBORO    CLEAR     30  16  56 NW7       30.39R WCI  23
MONTICELLO     CLEAR     25  18  74 NW6       30.45R WCI  18
$$





USA.gov is the U.S. government's official web portal to all federal, state and local government web resources and services.